Change the Weather History Date:

Sunday, March 10, 2013

  Actual Average Record
Temperature  
Mean Temperature 37 °F 39 °F  
Max Temperature 42 °F 44 °F 60 °F (1970)
Min Temperature 31 °F 34 °F 12 °F (1951)
Degree Days  
Heating Degree Days 28 26  
Month to date heating degree days 271 265  
Since 1 July heating degree days 4797 4803  
Cooling Degree Days 0    
Month to date cooling degree days 0  
Year to date cooling degree days 0  
Moisture  
Dew Point 33 °F    
Average Humidity 0    
Maximum Humidity 0    
Minimum Humidity 0    
Precipitation  
Precipitation 0.05 in 0.25 in 2.43 in (1959)
Month to date precipitation 1.78 2.48  
Year to date precipitation 23.34 20.52  
Snow  
Snow 0.20 in 0.30 in 5.50 in (1960)
Month to date snowfall 0.2 2.7  
Since 1 July snowfall 12.1 29.2  
Snow Depth 0.00 in    
Sea Level Pressure  
Sea Level Pressure 30.41 in    
Wind  
Wind Speed 2 mph (SW)    
Max Wind Speed 10 mph    
Max Gust Speed 15 mph    
Visibility 10 miles    
Events Rain    
T = Trace of Precipitation, MM = Missing Value Source: NWS Daily Summary

Daily Weather History Graph

Daily Weather History Graph

Search for Another Location

Airport or City:

Trip Planner

Search our weather history database for the weather conditions in past years. The results will help you decide how hot, cold, wet, or windy it might be!

Date:

Astronomy

Mar. 10, 2013 Rise Set
Actual Time 7:12 AM AKDT 6:41 PM AKDT
Civil Twilight 6:36 AM AKDT 7:17 PM AKDT
Nautical Twilight 5:54 AM AKDT 7:59 PM AKDT
Astronomical Twilight 5:11 AM AKDT 8:43 PM AKDT
Moon 6:22 AM AKDT (3/10) 5:56 PM AKDT (3/10)
Length of Visible Light 12h 40m
Length of Day
11h 28m
Waning Crescent, 1% of the Moon is Illuminated
Mar 10
Waning Crescent
Mar 11
New
Mar 19
First Quarter
Mar 27
Full
Apr 2
Last Quarter

Hourly Weather History & Observations

Time (AKDT) Temp. Windchill Dew Point Humidity Pressure Visibility Wind Dir Wind Speed Gust Speed Precip Events Conditions
12:53 AM 34.0 °F - 32.0 °F 92% 30.40 in 10.0 mi Calm Calm - N/A   Mostly Cloudy
1:43 AM 35.6 °F 32.8 °F 33.8 °F 93% 30.40 in 10.0 mi WSW 3.5 mph - 0.00 in Rain Light Rain
1:53 AM 35.1 °F 32.2 °F 33.1 °F 92% 30.40 in 10.0 mi West 3.5 mph - 0.00 in   Mostly Cloudy
3:00 AM 35.6 °F 32.8 °F 32.0 °F 87% 30.39 in 10.0 mi WSW 3.5 mph - N/A   Mostly Cloudy
4:53 AM 32.0 °F - 30.9 °F 96% 30.40 in 10.0 mi Calm Calm - N/A   Scattered Clouds
5:53 AM 32.0 °F - 30.9 °F 96% 30.41 in 10.0 mi Calm Calm - N/A   Mostly Cloudy
6:53 AM 33.1 °F - 30.9 °F 92% 30.41 in 10.0 mi Calm Calm - N/A   Clear
7:53 AM 32.0 °F - 30.9 °F 96% 30.42 in 10.0 mi Calm Calm - N/A   Scattered Clouds
8:53 AM 34.0 °F - 33.1 °F 96% 30.42 in 10.0 mi Calm Calm - N/A   Mostly Cloudy
9:53 AM 37.9 °F - 34.0 °F 86% 30.42 in 10.0 mi Calm Calm - N/A   Mostly Cloudy
10:53 AM 39.9 °F 37.8 °F 33.1 °F 77% 30.42 in 10.0 mi Variable 3.5 mph - N/A   Overcast
11:26 AM 35.6 °F 30.7 °F 32.0 °F 87% 30.42 in 2.0 mi South 5.8 mph - 0.05 in Rain Light Rain
11:35 AM 35.6 °F - 33.8 °F 93% 30.41 in 10.0 mi Calm Calm - 0.05 in Rain Light Rain
11:53 AM 37.9 °F - 34.0 °F 86% 30.43 in 10.0 mi Calm Calm - 0.05 in   Overcast
12:53 PM 39.9 °F 35.1 °F 33.1 °F 77% 30.43 in 10.0 mi Variable 6.9 mph - N/A   Overcast
1:53 PM 41.0 °F 36.4 °F 32.0 °F 70% 30.42 in 10.0 mi Variable 6.9 mph - 0.00 in   Overcast
2:53 PM 41.0 °F 38.0 °F 32.0 °F 70% 30.42 in 10.0 mi SSW 4.6 mph - N/A   Overcast
3:53 PM 41.0 °F 39.0 °F 33.1 °F 73% 30.42 in 10.0 mi SSW 3.5 mph - N/A   Overcast
4:04 PM 41.0 °F 37.1 °F 33.8 °F 76% 30.41 in 10.0 mi SSW 5.8 mph - N/A   Overcast
4:40 PM 41.0 °F 38.0 °F 33.8 °F 76% 30.40 in 10.0 mi SW 4.6 mph - N/A   Overcast
4:53 PM 39.9 °F 37.8 °F 34.0 °F 79% 30.41 in 10.0 mi SSW 3.5 mph - N/A   Overcast
5:53 PM 39.0 °F 34.8 °F 35.1 °F 86% 30.40 in 10.0 mi SSW 5.8 mph - 0.00 in Rain Light Rain
6:31 PM 39.2 °F - 35.6 °F 87% 30.39 in 10.0 mi Calm Calm - 0.01 in Rain Light Rain
6:53 PM 37.9 °F - 35.1 °F 89% 30.40 in 10.0 mi Calm Calm - 0.01 in Rain Light Rain
7:53 PM 37.9 °F - 36.0 °F 93% 30.40 in 10.0 mi Calm Calm - 0.00 in   Overcast
8:53 PM 37.0 °F - 34.0 °F 89% 30.40 in 10.0 mi Calm Calm - 0.00 in   Mostly Cloudy
9:53 PM 34.0 °F - 33.1 °F 96% 30.41 in 10.0 mi Calm Calm - N/A   Mostly Cloudy
10:53 PM 36.0 °F - 34.0 °F 93% 30.41 in 10.0 mi Calm Calm - N/A   Overcast
11:53 PM 36.0 °F - 35.1 °F 97% 30.42 in 10.0 mi Calm Calm - 0.00 in   Overcast
12:53 AM 36.0 °F - 34.0 °F 93% 30.42 in 10.0 mi Calm Calm - N/A   Overcast